North Platte, NE

9:06 PM CDT on September 23, 2017 (GMT -0500)
North Platte Regional-Bird

Weather History for KLBF - February, 2013

Change the Weather History Date:

Saturday, February 16, 2013

  Actual Average Record
Temperature  
Mean Temperature 35 °F 29 °F  
Max Temperature 56 °F 43 °F 72 °F (2017)
Min Temperature 14 °F 15 °F -15 °F (1881)
Degree Days  
Heating Degree Days 30 36  
Month to date heating degree days 507 601  
Since 1 July heating degree days 4462 4621  
Cooling Degree Days 0 0  
Month to date cooling degree days 0 0  
Year to date cooling degree days 0 0  
Moisture  
Dew Point 22 °F    
Average Humidity 62    
Maximum Humidity 92    
Minimum Humidity 32    
Precipitation  
Precipitation 0.00 in 0.02 in 0.40 in (1992)
Month to date precipitation 0.47 0.23  
Year to date precipitation 0.71 0.57  
Snow  
Snow 0.00 in 0.20 in 3.00 in (1911)
Month to date snowfall 4.4 3.0  
Since 1 July snowfall 13.3 18.6  
Snow Depth 0.00 in    
Sea Level Pressure  
Sea Level Pressure 30.09 in    
Wind  
Wind Speed 9 mph (West)    
Max Wind Speed 25 mph    
Max Gust Speed 33 mph    
Visibility 10 miles    
Events      
T = Trace of Precipitation, MM = Missing Value Source: NWS Daily Summary

Daily Weather History Graph

Daily Weather History Graph

Search for Another Location

Airport or City:

Trip Planner

Search our weather history database for the weather conditions in past years. The results will help you decide how hot, cold, wet, or windy it might be!

Date:

Astronomy

Feb. 16, 2013 Rise Set
Actual Time 7:35 AM CST 6:18 PM CST
Civil Twilight 7:07 AM CST 6:46 PM CST
Nautical Twilight 6:35 AM CST 7:18 PM CST
Astronomical Twilight 6:03 AM CST 7:50 PM CST
Moon 10:45 AM CST (2/16) 12:23 AM CST (2/16)
Length of Visible Light 11h 39m
Length of Day
10h 43m
Waxing Crescent, 39% of the Moon is Illuminated
Feb 16
Waxing Crescent
Feb 17
First Quarter
Feb 25
Full
Mar 4
Last Quarter
Mar 11
New

Hourly Weather History & Observations

Time (CST) Temp. Windchill Dew Point Humidity Pressure Visibility Wind Dir Wind Speed Gust Speed Precip Events Conditions
12:53 AM 15.1 °F - 10.9 °F 84% 30.35 in 10.0 mi Calm Calm - N/A   Mostly Cloudy
1:53 AM 19.9 °F - 14.0 °F 78% 30.31 in 10.0 mi Calm Calm - N/A   Overcast
2:53 AM 21.9 °F 17.2 °F 15.1 °F 75% 30.28 in 10.0 mi SSW 3.5 mph - N/A   Overcast
3:53 AM 23.0 °F 17.0 °F 16.0 °F 74% 30.25 in 10.0 mi SSW 4.6 mph - N/A   Overcast
4:53 AM 24.1 °F 16.0 °F 16.0 °F 71% 30.20 in 10.0 mi SSW 6.9 mph - N/A   Overcast
5:53 AM 25.0 °F 18.1 °F 18.0 °F 75% 30.16 in 10.0 mi SSW 5.8 mph - N/A   Overcast
6:53 AM 28.0 °F 22.8 °F 19.9 °F 72% 30.13 in 10.0 mi WSW 4.6 mph - N/A   Overcast
7:53 AM 28.9 °F 22.8 °F 21.9 °F 75% 30.12 in 10.0 mi West 5.8 mph - N/A   Overcast
8:53 AM 33.1 °F 25.5 °F 24.1 °F 70% 30.10 in 10.0 mi West 9.2 mph - N/A   Overcast
9:53 AM 39.9 °F 31.8 °F 24.1 °F 53% 30.09 in 10.0 mi WNW 15.0 mph - N/A   Clear
10:53 AM 46.0 °F 39.3 °F 26.1 °F 46% 30.08 in 10.0 mi WNW 16.1 mph - N/A   Clear
11:53 AM 50.0 °F - 26.1 °F 39% 30.07 in 10.0 mi NW 19.6 mph 28.8 mph N/A   Clear
12:53 PM 53.1 °F - 27.0 °F 37% 30.06 in 10.0 mi WNW 21.9 mph 28.8 mph N/A   Clear
1:53 PM 54.0 °F - 27.0 °F 35% 30.03 in 10.0 mi WNW 19.6 mph 26.5 mph N/A   Clear
2:53 PM 55.0 °F - 27.0 °F 34% 30.00 in 10.0 mi NW 21.9 mph 33.4 mph N/A   Clear
3:53 PM 55.9 °F - 28.0 °F 34% 30.00 in 10.0 mi NW 18.4 mph - N/A   Clear
4:53 PM 53.1 °F - 28.0 °F 38% 29.99 in 10.0 mi NW 15.0 mph - N/A   Clear
5:53 PM 48.9 °F - 28.0 °F 44% 29.99 in 10.0 mi NW 9.2 mph - N/A   Clear
6:53 PM 36.0 °F 32.1 °F 25.0 °F 64% 30.01 in 10.0 mi WNW 4.6 mph - N/A   Clear
7:53 PM 30.9 °F - 24.1 °F 76% 30.01 in 10.0 mi Calm Calm - N/A   Clear
8:53 PM 28.9 °F - 23.0 °F 78% 30.00 in 10.0 mi Calm Calm - N/A   Clear
9:53 PM 27.0 °F - 24.1 °F 89% 29.99 in 10.0 mi Calm Calm - N/A   Clear
10:53 PM 25.0 °F 20.7 °F 21.9 °F 88% 29.98 in 10.0 mi WNW 3.5 mph - N/A   Clear
11:53 PM 23.0 °F 17.0 °F 19.9 °F 88% 29.97 in 10.0 mi NW 4.6 mph - N/A   Clear